Time,TemperatureF,DewpointF,PressureIn,WindDirection,WindDirectionDegrees,WindSpeedMPH,WindSpeedGustMPH,Humidity,HourlyPrecipIn,Conditions,Clouds,dailyrainin,SoftwareType,DateUTC
2013-08-31 00:00:00,68.5,57.6,29.84,SW,225,1.0,1.0,68,0.00,,,0.00,meteohub,2013-08-31 07:00:00,
2013-08-31 00:05:00,68.5,57.6,29.84,SW,225,1.0,1.0,68,0.00,,,0.00,meteohub,2013-08-31 07:05:00,
2013-08-31 00:10:00,68.4,57.4,29.84,SW,225,1.0,1.0,68,0.00,,,0.00,meteohub,2013-08-31 07:10:00,
2013-08-31 00:15:00,68.2,57.2,29.84,South,180,0.0,1.0,68,0.00,,,0.00,meteohub,2013-08-31 07:15:00,
2013-08-31 00:20:00,68.0,57.0,29.84,SW,225,0.0,2.0,68,0.00,,,0.00,meteohub,2013-08-31 07:20:00,
2013-08-31 00:25:00,68.0,57.0,29.84,SW,225,0.0,2.0,68,0.00,,,0.00,meteohub,2013-08-31 07:25:00,
2013-08-31 00:30:00,67.6,57.0,29.84,SW,225,1.0,2.0,69,0.00,,,0.00,meteohub,2013-08-31 07:30:00,
2013-08-31 00:35:00,67.6,57.0,29.84,SW,225,0.0,2.0,69,0.00,,,0.00,meteohub,2013-08-31 07:35:00,
2013-08-31 00:40:00,67.5,57.0,29.85,SW,225,1.0,2.0,69,0.00,,,0.00,meteohub,2013-08-31 07:40:00,
2013-08-31 00:45:00,67.3,57.2,29.84,South,180,1.0,2.0,70,0.00,,,0.00,meteohub,2013-08-31 07:45:00,
2013-08-31 00:50:00,67.3,57.2,29.85,SW,225,1.0,2.0,70,0.00,,,0.00,meteohub,2013-08-31 07:50:00,
2013-08-31 00:55:00,67.1,57.4,29.85,NW,315,0.0,2.0,71,0.00,,,0.00,meteohub,2013-08-31 07:55:00,
2013-08-31 01:01:00,66.9,57.2,29.85,SW,225,0.0,2.0,71,0.00,,,0.00,meteohub,2013-08-31 08:01:00,
2013-08-31 01:06:00,66.9,57.2,29.85,SW,225,0.0,1.0,71,0.00,,,0.00,meteohub,2013-08-31 08:06:00,
2013-08-31 01:11:00,66.6,57.2,29.84,SW,225,1.0,1.0,72,0.00,,,0.00,meteohub,2013-08-31 08:11:00,
2013-08-31 01:16:00,66.4,57.0,29.84,SW,225,2.0,2.0,72,0.00,,,0.00,meteohub,2013-08-31 08:16:00,
2013-08-31 01:21:00,66.4,57.4,29.84,South,180,1.0,2.0,73,0.00,,,0.00,meteohub,2013-08-31 08:21:00,
2013-08-31 01:26:00,66.4,57.4,29.84,South,180,1.0,2.0,73,0.00,,,0.00,meteohub,2013-08-31 08:26:00,
2013-08-31 01:31:00,66.2,57.2,29.85,SW,225,0.0,2.0,73,0.00,,,0.00,meteohub,2013-08-31 08:31:00,
2013-08-31 01:36:00,66.0,57.2,29.84,SW,225,0.0,1.0,73,0.00,,,0.00,meteohub,2013-08-31 08:36:00,
2013-08-31 01:41:00,65.8,57.4,29.84,NW,315,0.0,1.0,74,0.00,,,0.00,meteohub,2013-08-31 08:41:00,
2013-08-31 01:46:00,65.5,57.0,29.84,NW,315,0.0,1.0,74,0.00,,,0.00,meteohub,2013-08-31 08:46:00,
2013-08-31 01:51:00,65.5,57.4,29.85,North,0,1.0,0.0,75,0.00,,,0.00,meteohub,2013-08-31 08:51:00,
2013-08-31 01:56:00,65.3,57.2,29.84,SW,225,0.0,1.0,75,0.00,,,0.00,meteohub,2013-08-31 08:56:00,
2013-08-31 02:01:00,65.3,57.6,29.85,East,90,0.0,1.0,76,0.00,,,0.00,meteohub,2013-08-31 09:01:00,
2013-08-31 02:06:00,65.3,57.6,29.84,East,90,0.0,1.0,76,0.00,,,0.00,meteohub,2013-08-31 09:06:00,
2013-08-31 02:11:00,65.3,57.9,29.84,NE,45,0.0,2.0,77,0.00,,,0.00,meteohub,2013-08-31 09:11:00,
2013-08-31 02:16:00,65.1,57.7,29.84,NE,45,0.0,2.0,77,0.00,,,0.00,meteohub,2013-08-31 09:16:00,
2013-08-31 02:22:00,65.1,57.7,29.84,NE,45,0.0,2.0,77,0.00,,,0.00,meteohub,2013-08-31 09:22:00,
2013-08-31 02:27:00,65.1,57.7,29.84,NE,45,0.0,1.0,77,0.00,,,0.00,meteohub,2013-08-31 09:27:00,
2013-08-31 02:32:00,64.9,57.6,29.83,NE,45,0.0,0.0,77,0.00,,,0.00,meteohub,2013-08-31 09:32:00,
2013-08-31 02:37:00,64.8,57.7,29.84,NE,45,0.0,0.0,78,0.00,,,0.00,meteohub,2013-08-31 09:37:00,
2013-08-31 02:42:00,64.6,57.6,29.83,NE,45,1.0,0.0,78,0.00,,,0.00,meteohub,2013-08-31 09:42:00,
2013-08-31 02:47:00,64.4,57.7,29.84,NE,45,0.0,2.0,79,0.00,,,0.00,meteohub,2013-08-31 09:47:00,
2013-08-31 02:52:00,64.2,57.6,29.83,NE,45,0.0,2.0,79,0.00,,,0.00,meteohub,2013-08-31 09:52:00,
2013-08-31 02:57:00,64.2,57.9,29.84,NE,45,0.0,2.0,80,0.00,,,0.00,meteohub,2013-08-31 09:57:00,
2013-08-31 03:02:00,64.0,57.7,29.84,NE,45,0.0,0.0,80,0.00,,,0.00,meteohub,2013-08-31 10:02:00,
2013-08-31 03:07:00,64.0,58.1,29.83,NE,45,0.0,0.0,81,0.00,,,0.00,meteohub,2013-08-31 10:07:00,
2013-08-31 03:12:00,63.9,57.9,29.83,NE,45,0.0,0.0,81,0.00,,,0.00,meteohub,2013-08-31 10:12:00,
2013-08-31 03:17:00,63.9,57.9,29.83,NE,45,1.0,0.0,81,0.00,,,0.00,meteohub,2013-08-31 10:17:00,
2013-08-31 03:22:00,63.9,57.9,29.83,NE,45,1.0,1.0,81,0.00,,,0.00,meteohub,2013-08-31 10:22:00,
2013-08-31 03:27:00,63.7,58.1,29.83,NE,45,0.0,1.0,82,0.00,,,0.00,meteohub,2013-08-31 10:27:00,
2013-08-31 03:32:00,63.7,58.1,29.83,NE,45,0.0,1.0,82,0.00,,,0.00,meteohub,2013-08-31 10:32:00,
2013-08-31 03:37:00,63.5,57.9,29.84,NE,45,0.0,1.0,82,0.00,,,0.00,meteohub,2013-08-31 10:37:00,
2013-08-31 03:42:00,63.5,58.3,29.84,NE,45,0.0,0.0,83,0.00,,,0.00,meteohub,2013-08-31 10:42:00,
2013-08-31 03:47:00,63.3,58.1,29.83,NE,45,0.0,0.0,83,0.00,,,0.00,meteohub,2013-08-31 10:47:00,
2013-08-31 03:52:00,63.3,58.1,29.84,NE,45,0.0,0.0,83,0.00,,,0.00,meteohub,2013-08-31 10:52:00,
2013-08-31 03:57:00,63.1,57.9,29.84,NE,45,0.0,0.0,83,0.00,,,0.00,meteohub,2013-08-31 10:57:00,
2013-08-31 04:02:00,63.1,57.9,29.83,NE,45,0.0,0.0,83,0.00,,,0.00,meteohub,2013-08-31 11:02:00,
2013-08-31 04:07:00,63.0,58.1,29.83,NE,45,0.0,0.0,84,0.00,,,0.00,meteohub,2013-08-31 11:07:00,
2013-08-31 04:12:00,63.0,58.1,29.83,NE,45,0.0,0.0,84,0.00,,,0.00,meteohub,2013-08-31 11:12:00,
2013-08-31 04:17:00,62.8,57.9,29.84,NE,45,0.0,0.0,84,0.00,,,0.00,meteohub,2013-08-31 11:17:00,
2013-08-31 04:22:00,62.8,58.3,29.84,NE,45,0.0,0.0,85,0.00,,,0.00,meteohub,2013-08-31 11:22:00,
2013-08-31 04:27:00,62.8,58.3,29.83,NE,45,0.0,0.0,85,0.00,,,0.00,meteohub,2013-08-31 11:27:00,
2013-08-31 04:32:00,62.6,58.1,29.84,NE,45,0.0,0.0,85,0.00,,,0.00,meteohub,2013-08-31 11:32:00,
2013-08-31 04:37:00,62.6,58.1,29.83,NE,45,0.0,0.0,85,0.00,,,0.00,meteohub,2013-08-31 11:37:00,
2013-08-31 04:42:00,62.6,58.3,29.83,SW,225,0.0,0.0,86,0.00,,,0.00,meteohub,2013-08-31 11:42:00,
2013-08-31 04:47:00,62.6,58.1,29.83,West,270,0.0,1.0,85,0.00,,,0.00,meteohub,2013-08-31 11:47:00,
2013-08-31 04:52:00,62.6,58.1,29.84,South,180,0.0,1.0,85,0.00,,,0.00,meteohub,2013-08-31 11:52:00,
2013-08-31 04:57:00,62.4,57.9,29.83,South,180,0.0,1.0,85,0.00,,,0.00,meteohub,2013-08-31 11:57:00,
2013-08-31 05:02:00,62.4,57.9,29.84,South,180,0.0,1.0,85,0.00,,,0.00,meteohub,2013-08-31 12:02:00,
2013-08-31 05:07:00,62.4,57.9,29.84,South,180,0.0,0.0,85,0.00,,,0.00,meteohub,2013-08-31 12:07:00,
2013-08-31 05:12:00,62.2,57.9,29.83,West,270,0.0,0.0,86,0.00,,,0.00,meteohub,2013-08-31 12:12:00,
2013-08-31 05:17:00,62.1,57.7,29.83,West,270,0.0,0.0,86,0.00,,,0.00,meteohub,2013-08-31 12:17:00,
2013-08-31 05:22:00,62.1,57.7,29.84,West,270,0.0,0.0,86,0.00,,,0.00,meteohub,2013-08-31 12:22:00,
2013-08-31 05:27:00,61.9,57.6,29.84,West,270,0.0,0.0,86,0.00,,,0.00,meteohub,2013-08-31 12:27:00,
2013-08-31 05:32:00,61.7,57.4,29.84,West,270,0.0,0.0,86,0.00,,,0.00,meteohub,2013-08-31 12:32:00,
2013-08-31 05:37:00,61.5,57.4,29.84,West,270,0.0,1.0,86,0.00,,,0.00,meteohub,2013-08-31 12:37:00,
2013-08-31 05:42:00,61.5,57.6,29.84,West,270,0.0,1.0,87,0.00,,,0.00,meteohub,2013-08-31 12:42:00,
2013-08-31 05:47:00,61.3,57.4,29.84,West,270,0.0,0.0,87,0.00,,,0.00,meteohub,2013-08-31 12:47:00,
2013-08-31 05:52:00,61.3,57.4,29.84,West,270,0.0,0.0,87,0.00,,,0.00,meteohub,2013-08-31 12:52:00,
2013-08-31 05:57:00,61.2,57.2,29.84,West,270,0.0,0.0,87,0.00,,,0.00,meteohub,2013-08-31 12:57:00,
2013-08-31 06:02:00,61.2,57.6,29.84,West,270,0.0,0.0,88,0.00,,,0.00,meteohub,2013-08-31 13:02:00,
2013-08-31 06:07:00,61.2,57.6,29.84,West,270,0.0,0.0,88,0.00,,,0.00,meteohub,2013-08-31 13:07:00,
2013-08-31 06:12:00,61.2,57.9,29.84,West,270,0.0,0.0,89,0.00,,,0.00,meteohub,2013-08-31 13:12:00,
2013-08-31 06:17:00,61.2,57.9,29.84,West,270,0.0,0.0,89,0.00,,,0.00,meteohub,2013-08-31 13:17:00,
2013-08-31 06:22:00,61.0,57.7,29.84,North,0,0.0,0.0,89,0.00,,,0.00,meteohub,2013-08-31 13:22:00,
2013-08-31 06:27:00,61.0,57.7,29.85,North,0,0.0,0.0,89,0.00,,,0.00,meteohub,2013-08-31 13:27:00,
2013-08-31 06:32:00,61.0,57.7,29.84,North,0,0.0,0.0,89,0.00,,,0.00,meteohub,2013-08-31 13:32:00,
2013-08-31 06:37:00,61.0,58.1,29.85,North,0,0.0,0.0,90,0.00,,,0.00,meteohub,2013-08-31 13:37:00,
2013-08-31 06:42:00,61.0,58.1,29.85,North,0,0.0,0.0,90,0.00,,,0.00,meteohub,2013-08-31 13:42:00,
2013-08-31 06:47:00,61.0,58.1,29.85,North,0,0.0,0.0,90,0.00,,,0.00,meteohub,2013-08-31 13:47:00,
2013-08-31 06:52:00,61.0,58.1,29.86,North,0,0.0,0.0,90,0.00,,,0.00,meteohub,2013-08-31 13:52:00,
2013-08-31 06:57:00,61.0,58.1,29.86,North,0,0.0,0.0,90,0.00,,,0.00,meteohub,2013-08-31 13:57:00,
2013-08-31 07:02:00,61.0,58.1,29.86,North,0,0.0,0.0,90,0.00,,,0.00,meteohub,2013-08-31 14:02:00,
2013-08-31 07:07:00,61.0,58.1,29.86,North,0,0.0,0.0,90,0.00,,,0.00,meteohub,2013-08-31 14:07:00,
2013-08-31 07:12:00,61.0,58.1,29.86,North,0,0.0,0.0,90,0.00,,,0.00,meteohub,2013-08-31 14:12:00,
2013-08-31 07:17:00,61.2,58.3,29.86,North,0,0.0,0.0,90,0.00,,,0.00,meteohub,2013-08-31 14:17:00,
2013-08-31 07:22:00,61.2,58.3,29.86,North,0,0.0,0.0,90,0.00,,,0.00,meteohub,2013-08-31 14:22:00,
2013-08-31 07:27:00,61.3,58.6,29.86,North,0,0.0,0.0,91,0.00,,,0.00,meteohub,2013-08-31 14:27:00,
2013-08-31 07:32:00,61.5,58.8,29.86,North,0,0.0,0.0,91,0.00,,,0.00,meteohub,2013-08-31 14:32:00,
2013-08-31 07:37:00,61.9,59.0,29.86,North,0,0.0,0.0,90,0.00,,,0.00,meteohub,2013-08-31 14:37:00,
2013-08-31 07:42:00,62.2,59.2,29.87,North,0,0.0,0.0,90,0.00,,,0.00,meteohub,2013-08-31 14:42:00,
2013-08-31 07:47:00,62.4,59.4,29.87,North,0,0.0,0.0,90,0.00,,,0.00,meteohub,2013-08-31 14:47:00,
2013-08-31 07:52:00,62.8,59.5,29.87,West,270,0.0,0.0,89,0.00,,,0.00,meteohub,2013-08-31 14:52:00,
2013-08-31 07:57:00,63.3,59.7,29.87,SW,225,0.0,0.0,88,0.00,,,0.00,meteohub,2013-08-31 14:57:00,
2013-08-31 08:02:00,63.7,60.1,29.87,SW,225,0.0,1.0,88,0.00,,,0.00,meteohub,2013-08-31 15:02:00,
2013-08-31 08:07:00,64.0,60.1,29.87,SW,225,0.0,1.0,87,0.00,,,0.00,meteohub,2013-08-31 15:07:00,
2013-08-31 08:12:00,64.6,60.6,29.87,SW,225,0.0,1.0,87,0.00,,,0.00,meteohub,2013-08-31 15:12:00,
2013-08-31 08:17:00,64.9,60.6,29.87,NE,45,0.0,1.0,86,0.00,,,0.00,meteohub,2013-08-31 15:17:00,
2013-08-31 08:22:00,65.3,61.0,29.87,NW,315,0.0,1.0,86,0.00,,,0.00,meteohub,2013-08-31 15:22:00,
2013-08-31 08:27:00,65.7,61.0,29.87,SW,225,2.0,2.0,85,0.00,,,0.00,meteohub,2013-08-31 15:27:00,
2013-08-31 08:32:00,66.4,61.7,29.87,West,270,1.0,2.0,85,0.00,,,0.00,meteohub,2013-08-31 15:32:00,
2013-08-31 08:37:00,67.6,62.6,29.87,South,180,2.0,2.0,84,0.00,,,0.00,meteohub,2013-08-31 15:37:00,
2013-08-31 08:42:00,68.7,63.3,29.87,SW,225,2.0,2.0,83,0.00,,,0.00,meteohub,2013-08-31 15:42:00,
2013-08-31 08:47:00,69.4,63.7,29.88,South,180,1.0,2.0,82,0.00,,,0.00,meteohub,2013-08-31 15:47:00,
2013-08-31 08:52:00,70.7,64.2,29.87,SW,225,2.0,2.0,80,0.00,,,0.00,meteohub,2013-08-31 15:52:00,
2013-08-31 08:57:00,71.8,64.9,29.88,North,0,1.0,2.0,79,0.00,,,0.00,meteohub,2013-08-31 15:57:00,
2013-08-31 09:02:00,72.1,64.6,29.87,East,90,0.0,2.0,77,0.00,,,0.00,meteohub,2013-08-31 16:02:00,
2013-08-31 09:07:00,73.2,64.8,29.88,West,270,1.0,2.0,75,0.00,,,0.00,meteohub,2013-08-31 16:07:00,
2013-08-31 09:12:00,74.3,65.1,29.88,West,270,1.0,2.0,73,0.00,,,0.00,meteohub,2013-08-31 16:12:00,
2013-08-31 09:17:00,74.8,64.8,29.88,West,270,2.0,2.0,71,0.00,,,0.00,meteohub,2013-08-31 16:17:00,
2013-08-31 09:22:00,75.7,65.3,29.88,South,180,2.0,3.0,70,0.00,,,0.00,meteohub,2013-08-31 16:22:00,
2013-08-31 09:27:00,76.3,64.9,29.88,North,0,2.0,3.0,68,0.00,,,0.00,meteohub,2013-08-31 16:27:00,
2013-08-31 09:32:00,76.8,64.6,29.88,West,270,1.0,3.0,66,0.00,,,0.00,meteohub,2013-08-31 16:32:00,
2013-08-31 09:37:00,77.7,64.9,29.88,West,270,2.0,3.0,65,0.00,,,0.00,meteohub,2013-08-31 16:37:00,
2013-08-31 09:42:00,78.4,64.8,29.88,SE,135,1.0,3.0,63,0.00,,,0.00,meteohub,2013-08-31 16:42:00,
2013-08-31 09:47:00,79.2,64.9,29.88,SE,135,2.0,3.0,62,0.00,,,0.00,meteohub,2013-08-31 16:47:00,
2013-08-31 09:52:00,80.1,64.9,29.88,SW,225,2.0,3.0,60,0.00,,,0.00,meteohub,2013-08-31 16:52:00,
2013-08-31 09:57:00,81.0,64.8,29.88,SW,225,2.0,2.0,58,0.00,,,0.00,meteohub,2013-08-31 16:57:00,
2013-08-31 10:02:00,81.5,64.8,29.88,West,270,1.0,2.0,57,0.00,,,0.00,meteohub,2013-08-31 17:02:00,
2013-08-31 10:07:00,82.4,65.1,29.88,SW,225,2.0,2.0,56,0.00,,,0.00,meteohub,2013-08-31 17:07:00,
2013-08-31 10:12:00,82.8,64.4,29.88,North,0,2.0,2.0,54,0.00,,,0.00,meteohub,2013-08-31 17:12:00,
2013-08-31 10:17:00,83.5,64.6,29.88,NE,45,3.0,3.0,53,0.00,,,0.00,meteohub,2013-08-31 17:17:00,
2013-08-31 10:22:00,84.2,63.0,29.88,NW,315,3.0,3.0,49,0.00,,,0.00,meteohub,2013-08-31 17:22:00,
2013-08-31 10:27:00,84.4,63.1,29.88,SW,225,2.0,4.0,49,0.00,,,0.00,meteohub,2013-08-31 17:27:00,
2013-08-31 10:32:00,84.6,63.3,29.88,SW,225,2.0,4.0,49,0.00,,,0.00,meteohub,2013-08-31 17:32:00,
2013-08-31 10:37:00,85.5,63.5,29.88,North,0,2.0,4.0,48,0.00,,,0.00,meteohub,2013-08-31 17:37:00,
2013-08-31 10:42:00,85.8,63.9,29.88,West,270,2.0,3.0,48,0.00,,,0.00,meteohub,2013-08-31 17:42:00,
2013-08-31 10:47:00,86.2,64.2,29.88,SW,225,2.0,3.0,48,0.00,,,0.00,meteohub,2013-08-31 17:47:00,
2013-08-31 10:52:00,87.1,64.4,29.88,NW,315,2.0,3.0,47,0.00,,,0.00,meteohub,2013-08-31 17:52:00,
2013-08-31 10:57:00,87.6,64.2,29.87,South,180,2.0,2.0,46,0.00,,,0.00,meteohub,2013-08-31 17:57:00,
2013-08-31 11:02:00,88.0,64.6,29.87,North,0,2.0,3.0,46,0.00,,,0.00,meteohub,2013-08-31 18:02:00,
2013-08-31 11:07:00,88.7,64.0,29.87,North,0,2.0,3.0,44,0.00,,,0.00,meteohub,2013-08-31 18:07:00,
2013-08-31 11:12:00,89.2,64.4,29.87,North,0,2.0,4.0,44,0.00,,,0.00,meteohub,2013-08-31 18:12:00,
2013-08-31 11:17:00,90.1,64.6,29.87,North,0,2.0,4.0,43,0.00,,,0.00,meteohub,2013-08-31 18:17:00,
2013-08-31 11:22:00,91.0,64.8,29.87,East,90,2.0,2.0,42,0.00,,,0.00,meteohub,2013-08-31 18:22:00,
2013-08-31 11:27:00,91.0,64.0,29.86,East,90,2.0,2.0,41,0.00,,,0.00,meteohub,2013-08-31 18:27:00,
2013-08-31 11:32:00,91.6,64.6,29.86,East,90,3.0,3.0,41,0.00,,,0.00,meteohub,2013-08-31 18:32:00,
2013-08-31 11:37:00,91.6,63.1,29.86,West,270,2.0,3.0,39,0.00,,,0.00,meteohub,2013-08-31 18:37:00,
2013-08-31 11:42:00,91.6,63.1,29.86,SW,225,2.0,3.0,39,0.00,,,0.00,meteohub,2013-08-31 18:42:00,
2013-08-31 11:47:00,91.6,63.1,29.86,NW,315,3.0,3.0,39,0.00,,,0.00,meteohub,2013-08-31 18:47:00,
2013-08-31 11:52:00,91.2,62.8,29.86,West,270,2.0,3.0,39,0.00,,,0.00,meteohub,2013-08-31 18:52:00,
2013-08-31 11:57:00,91.2,62.8,29.86,West,270,2.0,3.0,39,0.00,,,0.00,meteohub,2013-08-31 18:57:00,
2013-08-31 12:02:00,91.4,62.2,29.86,WSW,248,2.0,3.0,38,0.00,,,0.00,meteohub,2013-08-31 19:02:00,
2013-08-31 12:07:00,91.6,63.1,29.86,SW,225,2.0,3.0,39,0.00,,,0.00,meteohub,2013-08-31 19:07:00,
2013-08-31 12:12:00,92.7,63.3,29.86,East,90,2.0,3.0,38,0.00,,,0.00,meteohub,2013-08-31 19:12:00,
2013-08-31 12:17:00,93.4,62.4,29.86,SW,225,2.0,3.0,36,0.00,,,0.00,meteohub,2013-08-31 19:17:00,
2013-08-31 12:22:00,93.6,61.7,29.86,SW,225,2.0,3.0,35,0.00,,,0.00,meteohub,2013-08-31 19:22:00,
2013-08-31 12:27:00,93.6,61.0,29.86,NE,45,2.0,3.0,34,0.00,,,0.00,meteohub,2013-08-31 19:27:00,
2013-08-31 12:32:00,93.7,61.9,29.86,West,270,2.0,3.0,35,0.00,,,0.00,meteohub,2013-08-31 19:32:00,
2013-08-31 12:37:00,94.1,62.2,29.86,SE,135,2.0,3.0,35,0.00,,,0.00,meteohub,2013-08-31 19:37:00,
2013-08-31 12:42:00,94.6,61.9,29.86,SE,135,2.0,3.0,34,0.00,,,0.00,meteohub,2013-08-31 19:42:00,
2013-08-31 12:47:00,95.2,61.5,29.85,SW,225,2.0,3.0,33,0.00,,,0.00,meteohub,2013-08-31 19:47:00,
2013-08-31 12:52:00,95.4,60.8,29.85,SW,225,2.0,4.0,32,0.00,,,0.00,meteohub,2013-08-31 19:52:00,
2013-08-31 12:57:00,95.7,61.2,29.85,SW,225,2.0,4.0,32,0.00,,,0.00,meteohub,2013-08-31 19:57:00,
2013-08-31 13:02:00,96.1,61.5,29.85,SW,225,2.0,3.0,32,0.00,,,0.00,meteohub,2013-08-31 20:02:00,
2013-08-31 13:07:00,96.8,60.3,29.85,West,270,2.0,3.0,30,0.00,,,0.00,meteohub,2013-08-31 20:07:00,
2013-08-31 13:12:00,97.2,58.6,29.84,SW,225,2.0,3.0,28,0.00,,,0.00,meteohub,2013-08-31 20:12:00,
2013-08-31 13:17:00,97.3,58.8,29.84,SE,135,2.0,3.0,28,0.00,,,0.00,meteohub,2013-08-31 20:17:00,
2013-08-31 13:22:00,97.7,58.1,29.83,West,270,2.0,3.0,27,0.00,,,0.00,meteohub,2013-08-31 20:22:00,
2013-08-31 13:27:00,97.7,58.1,29.83,East,90,3.0,3.0,27,0.00,,,0.00,meteohub,2013-08-31 20:27:00,
2013-08-31 13:32:00,98.2,57.6,29.83,West,270,2.0,3.0,26,0.00,,,0.00,meteohub,2013-08-31 20:32:00,
2013-08-31 13:37:00,99.0,57.0,29.83,SE,135,2.0,3.0,25,0.00,,,0.00,meteohub,2013-08-31 20:37:00,
2013-08-31 13:42:00,99.3,56.1,29.83,SE,135,2.0,4.0,24,0.00,,,0.00,meteohub,2013-08-31 20:42:00,
2013-08-31 13:47:00,99.7,55.2,29.83,South,180,2.0,4.0,23,0.00,,,0.00,meteohub,2013-08-31 20:47:00,
2013-08-31 13:52:00,100.0,54.3,29.83,South,180,2.0,3.0,22,0.00,,,0.00,meteohub,2013-08-31 20:52:00,
2013-08-31 13:57:00,100.6,53.6,29.83,East,90,4.0,4.0,21,0.00,,,0.00,meteohub,2013-08-31 20:57:00,
2013-08-31 14:02:00,100.4,54.7,29.83,SW,225,3.0,4.0,22,0.00,,,0.00,meteohub,2013-08-31 21:02:00,
2013-08-31 14:07:00,100.2,53.2,29.82,SW,225,2.0,4.0,21,0.00,,,0.00,meteohub,2013-08-31 21:07:00,
2013-08-31 14:12:00,100.0,53.1,29.82,SE,135,2.0,4.0,21,0.00,,,0.00,meteohub,2013-08-31 21:12:00,
2013-08-31 14:17:00,100.2,50.5,29.82,South,180,3.0,4.0,19,0.00,,,0.00,meteohub,2013-08-31 21:17:00,
2013-08-31 14:22:00,100.4,53.4,29.82,SW,225,4.0,4.0,21,0.00,,,0.00,meteohub,2013-08-31 21:22:00,
2013-08-31 14:27:00,100.6,52.2,29.81,South,180,3.0,4.0,20,0.00,,,0.00,meteohub,2013-08-31 21:27:00,
2013-08-31 14:32:00,100.4,53.4,29.81,SW,225,2.0,4.0,21,0.00,,,0.00,meteohub,2013-08-31 21:32:00,
2013-08-31 14:37:00,100.4,53.4,29.81,North,0,2.0,4.0,21,0.00,,,0.00,meteohub,2013-08-31 21:37:00,
2013-08-31 14:42:00,100.4,53.4,29.81,South,180,3.0,4.0,21,0.00,,,0.00,meteohub,2013-08-31 21:42:00,
2013-08-31 14:47:00,100.2,49.1,29.81,South,180,3.0,4.0,18,0.00,,,0.00,meteohub,2013-08-31 21:47:00,
2013-08-31 14:52:00,100.0,51.8,29.81,SW,225,2.0,4.0,20,0.00,,,0.00,meteohub,2013-08-31 21:52:00,
2013-08-31 14:57:00,100.0,50.4,29.80,North,0,2.0,4.0,19,0.00,,,0.00,meteohub,2013-08-31 21:57:00,
2013-08-31 15:02:00,100.0,50.4,29.80,SW,225,2.0,4.0,19,0.00,,,0.00,meteohub,2013-08-31 22:02:00,
2013-08-31 15:07:00,100.2,53.2,29.80,SW,225,2.0,4.0,21,0.00,,,0.00,meteohub,2013-08-31 22:07:00,
2013-08-31 15:12:00,100.4,54.7,29.80,West,270,2.0,3.0,22,0.00,,,0.00,meteohub,2013-08-31 22:12:00,
2013-08-31 15:17:00,100.8,52.3,29.80,SW,225,2.0,3.0,20,0.00,,,0.00,meteohub,2013-08-31 22:17:00,
2013-08-31 15:22:00,101.1,52.7,29.79,SW,225,3.0,3.0,20,0.00,,,0.00,meteohub,2013-08-31 22:22:00,
2013-08-31 15:27:00,101.3,54.1,29.79,North,0,2.0,4.0,21,0.00,,,0.00,meteohub,2013-08-31 22:27:00,
2013-08-31 15:32:00,101.3,54.1,29.79,North,0,2.0,4.0,21,0.00,,,0.00,meteohub,2013-08-31 22:32:00,
2013-08-31 15:37:00,101.7,54.5,29.79,SE,135,2.0,4.0,21,0.00,,,0.00,meteohub,2013-08-31 22:37:00,
2013-08-31 15:42:00,101.8,54.5,29.78,SW,225,2.0,2.0,21,0.00,,,0.00,meteohub,2013-08-31 22:42:00,
2013-08-31 15:47:00,102.0,55.9,29.78,SW,225,3.0,4.0,22,0.00,,,0.00,meteohub,2013-08-31 22:47:00,
2013-08-31 15:52:00,101.7,55.8,29.78,South,180,2.0,4.0,22,0.00,,,0.00,meteohub,2013-08-31 22:52:00,
2013-08-31 15:57:00,101.5,55.6,29.78,West,270,2.0,4.0,22,0.00,,,0.00,meteohub,2013-08-31 22:57:00,
2013-08-31 16:02:00,101.3,55.4,29.78,West,270,2.0,4.0,22,0.00,,,0.00,meteohub,2013-08-31 23:02:00,
2013-08-31 16:07:00,101.1,55.2,29.78,NW,315,3.0,3.0,22,0.00,,,0.00,meteohub,2013-08-31 23:07:00,
2013-08-31 16:12:00,100.8,56.1,29.78,East,90,2.0,3.0,23,0.00,,,0.00,meteohub,2013-08-31 23:12:00,
2013-08-31 16:17:00,100.6,54.9,29.78,South,180,3.0,4.0,22,0.00,,,0.00,meteohub,2013-08-31 23:17:00,
2013-08-31 16:22:00,100.2,55.8,29.78,SE,135,2.0,4.0,23,0.00,,,0.00,meteohub,2013-08-31 23:22:00,
2013-08-31 16:27:00,100.2,54.5,29.78,South,180,2.0,3.0,22,0.00,,,0.00,meteohub,2013-08-31 23:27:00,
2013-08-31 16:32:00,100.0,55.6,29.78,West,270,2.0,3.0,23,0.00,,,0.00,meteohub,2013-08-31 23:32:00,
2013-08-31 16:37:00,99.1,55.9,29.78,NE,45,4.0,4.0,24,0.00,,,0.00,meteohub,2013-08-31 23:37:00,
2013-08-31 16:42:00,98.4,56.5,29.77,NW,315,2.0,4.0,25,0.00,,,0.00,meteohub,2013-08-31 23:42:00,
2013-08-31 16:47:00,98.1,57.4,29.78,West,270,3.0,5.0,26,0.00,,,0.00,meteohub,2013-08-31 23:47:00,
2013-08-31 16:52:00,97.5,55.8,29.78,South,180,3.0,5.0,25,0.00,,,0.00,meteohub,2013-08-31 23:52:00,
2013-08-31 16:57:00,96.8,55.2,29.78,North,0,3.0,5.0,25,0.00,,,0.00,meteohub,2013-08-31 23:57:00,
2013-08-31 17:02:00,96.4,55.9,29.78,West,270,2.0,3.0,26,0.00,,,0.00,meteohub,2013-09-01 00:02:00,
2013-08-31 17:07:00,96.1,54.5,29.77,South,180,2.0,3.0,25,0.00,,,0.00,meteohub,2013-09-01 00:07:00,
2013-08-31 17:12:00,95.5,55.2,29.77,SW,225,3.0,3.0,26,0.00,,,0.00,meteohub,2013-09-01 00:12:00,
2013-08-31 17:17:00,95.0,55.8,29.77,SW,225,2.0,3.0,27,0.00,,,0.00,meteohub,2013-09-01 00:17:00,
2013-08-31 17:22:00,94.3,55.2,29.77,East,90,2.0,3.0,27,0.00,,,0.00,meteohub,2013-09-01 00:22:00,
2013-08-31 17:27:00,93.7,55.8,29.77,SW,225,2.0,3.0,28,0.00,,,0.00,meteohub,2013-09-01 00:27:00,
2013-08-31 17:32:00,93.2,55.2,29.77,SE,135,2.0,3.0,28,0.00,,,0.00,meteohub,2013-09-01 00:32:00,
2013-08-31 17:37:00,92.3,54.5,29.77,SW,225,3.0,3.0,28,0.00,,,0.00,meteohub,2013-09-01 00:37:00,
2013-08-31 17:42:00,91.6,53.8,29.77,SW,225,2.0,4.0,28,0.00,,,0.00,meteohub,2013-09-01 00:42:00,
2013-08-31 17:47:00,91.0,53.4,29.77,SE,135,2.0,4.0,28,0.00,,,0.00,meteohub,2013-09-01 00:47:00,
2013-08-31 17:52:00,90.7,53.1,29.77,West,270,2.0,4.0,28,0.00,,,0.00,meteohub,2013-09-01 00:52:00,
2013-08-31 17:57:00,90.3,52.9,29.77,West,270,2.0,3.0,28,0.00,,,0.00,meteohub,2013-09-01 00:57:00,
2013-08-31 18:02:00,89.8,53.2,29.77,South,180,2.0,2.0,29,0.00,,,0.00,meteohub,2013-09-01 01:02:00,
2013-08-31 18:07:00,89.2,53.8,29.77,NW,315,2.0,2.0,30,0.00,,,0.00,meteohub,2013-09-01 01:07:00,
2013-08-31 18:12:00,88.7,53.2,29.77,South,180,2.0,2.0,30,0.00,,,0.00,meteohub,2013-09-01 01:12:00,
2013-08-31 18:17:00,88.3,53.1,29.78,South,180,2.0,2.0,30,0.00,,,0.00,meteohub,2013-09-01 01:17:00,
2013-08-31 18:22:00,87.8,53.4,29.78,NW,315,1.0,2.0,31,0.00,,,0.00,meteohub,2013-09-01 01:22:00,
2013-08-31 18:27:00,87.3,52.9,29.77,SW,225,2.0,2.0,31,0.00,,,0.00,meteohub,2013-09-01 01:27:00,
2013-08-31 18:32:00,86.7,52.5,29.78,South,180,2.0,3.0,31,0.00,,,0.00,meteohub,2013-09-01 01:32:00,
2013-08-31 18:37:00,86.0,51.8,29.78,SW,225,2.0,3.0,31,0.00,,,0.00,meteohub,2013-09-01 01:37:00,
2013-08-31 18:42:00,85.1,52.0,29.77,SE,135,2.0,3.0,32,0.00,,,0.00,meteohub,2013-09-01 01:42:00,
2013-08-31 18:47:00,84.2,51.1,29.77,NE,45,2.0,2.0,32,0.00,,,0.00,meteohub,2013-09-01 01:47:00,
2013-08-31 18:52:00,83.3,51.3,29.77,SE,135,2.0,2.0,33,0.00,,,0.00,meteohub,2013-09-01 01:52:00,
2013-08-31 18:57:00,82.6,52.2,29.77,NW,315,1.0,2.0,35,0.00,,,0.00,meteohub,2013-09-01 01:57:00,
2013-08-31 19:02:00,82.0,52.5,29.78,East,90,1.0,2.0,36,0.00,,,0.00,meteohub,2013-09-01 02:02:00,
2013-08-31 19:07:00,81.5,51.3,29.78,South,180,2.0,3.0,35,0.00,,,0.00,meteohub,2013-09-01 02:07:00,
2013-08-31 19:12:00,81.1,50.9,29.78,NW,315,1.0,3.0,35,0.00,,,0.00,meteohub,2013-09-01 02:12:00,
2013-08-31 19:17:00,80.8,51.3,29.78,North,0,2.0,3.0,36,0.00,,,0.00,meteohub,2013-09-01 02:17:00,
2013-08-31 19:22:00,80.4,51.1,29.78,NE,45,1.0,3.0,36,0.00,,,0.00,meteohub,2013-09-01 02:22:00,
2013-08-31 19:27:00,79.9,51.3,29.78,SW,225,1.0,3.0,37,0.00,,,0.00,meteohub,2013-09-01 02:27:00,
2013-08-31 19:32:00,79.5,52.3,29.78,North,0,2.0,3.0,39,0.00,,,0.00,meteohub,2013-09-01 02:32:00,
2013-08-31 19:37:00,78.8,52.5,29.78,SE,135,2.0,2.0,40,0.00,,,0.00,meteohub,2013-09-01 02:37:00,
2013-08-31 19:42:00,78.3,52.7,29.78,SE,135,2.0,2.0,41,0.00,,,0.00,meteohub,2013-09-01 02:42:00,
2013-08-31 19:47:00,77.9,52.3,29.78,SW,225,2.0,2.0,41,0.00,,,0.00,meteohub,2013-09-01 02:47:00,
2013-08-31 19:52:00,77.4,52.5,29.78,SW,225,2.0,2.0,42,0.00,,,0.00,meteohub,2013-09-01 02:52:00,
2013-08-31 19:57:00,76.8,52.7,29.78,SW,225,2.0,2.0,43,0.00,,,0.00,meteohub,2013-09-01 02:57:00,
2013-08-31 20:02:00,76.5,52.3,29.78,West,270,3.0,3.0,43,0.00,,,0.00,meteohub,2013-09-01 03:02:00,
2013-08-31 20:07:00,76.1,52.5,29.78,SW,225,1.0,3.0,44,0.00,,,0.00,meteohub,2013-09-01 03:07:00,
2013-08-31 20:12:00,75.7,51.6,29.78,West,270,3.0,4.0,43,0.00,,,0.00,meteohub,2013-09-01 03:12:00,
2013-08-31 20:17:00,75.6,51.4,29.78,NW,315,2.0,4.0,43,0.00,,,0.00,meteohub,2013-09-01 03:17:00,
2013-08-31 20:22:00,75.2,51.8,29.79,South,180,1.0,4.0,44,0.00,,,0.00,meteohub,2013-09-01 03:22:00,
2013-08-31 20:27:00,75.0,51.6,29.79,SW,225,1.0,3.0,44,0.00,,,0.00,meteohub,2013-09-01 03:27:00,
2013-08-31 20:32:00,74.3,51.6,29.79,NW,315,2.0,2.0,45,0.00,,,0.00,meteohub,2013-09-01 03:32:00,
2013-08-31 20:37:00,74.3,52.2,29.79,SW,225,2.0,3.0,46,0.00,,,0.00,meteohub,2013-09-01 03:37:00,
2013-08-31 20:42:00,73.9,51.8,29.79,South,180,2.0,4.0,46,0.00,,,0.00,meteohub,2013-09-01 03:42:00,
2013-08-31 20:47:00,73.8,52.3,29.80,South,180,2.0,4.0,47,0.00,,,0.00,meteohub,2013-09-01 03:47:00,
2013-08-31 20:52:00,73.8,52.3,29.80,South,180,2.0,4.0,47,0.00,,,0.00,meteohub,2013-09-01 03:52:00,
2013-08-31 20:57:00,73.4,53.1,29.80,East,90,1.0,2.0,49,0.00,,,0.00,meteohub,2013-09-01 03:57:00,
2013-08-31 21:01:00,73.2,52.9,29.80,NW,315,2.0,2.0,49,0.00,,,0.00,meteohub,2013-09-01 04:01:00,
2013-08-31 21:02:00,73.2,52.9,29.80,NW,315,2.0,2.0,49,0.00,,,0.00,meteohub,2013-09-01 04:02:00,
2013-08-31 21:04:00,73.2,52.9,29.80,NW,315,2.0,2.0,49,0.00,,,0.00,meteohub,2013-09-01 04:04:00,
2013-08-31 21:05:00,73.2,52.9,29.80,NW,315,2.0,2.0,49,0.00,,,0.00,meteohub,2013-09-01 04:05:00,
2013-08-31 21:10:00,72.7,53.4,29.80,South,180,1.0,2.0,51,0.00,,,0.00,meteohub,2013-09-01 04:10:00,
2013-08-31 21:11:00,72.7,53.4,29.81,South,180,4.0,4.0,51,0.00,,,0.00,meteohub,2013-09-01 04:11:00,
2013-08-31 21:16:00,72.3,53.8,29.81,NW,315,4.0,4.0,52,0.00,,,0.00,meteohub,2013-09-01 04:16:00,
2013-08-31 21:21:00,72.0,54.0,29.80,NW,315,2.0,4.0,53,0.00,,,0.00,meteohub,2013-09-01 04:21:00,
2013-08-31 21:26:00,71.8,53.8,29.81,North,0,1.0,4.0,53,0.00,,,0.00,meteohub,2013-09-01 04:26:00,
2013-08-31 21:32:00,71.6,54.1,29.81,West,270,1.0,4.0,54,0.00,,,0.00,meteohub,2013-09-01 04:32:00,
2013-08-31 21:37:00,71.4,54.0,29.81,SW,225,0.0,2.0,54,0.00,,,0.00,meteohub,2013-09-01 04:37:00,
2013-08-31 21:42:00,71.2,54.3,29.81,SW,225,4.0,4.0,55,0.00,,,0.00,meteohub,2013-09-01 04:42:00,
2013-08-31 21:47:00,70.9,54.3,29.81,West,270,2.0,4.0,56,0.00,,,0.00,meteohub,2013-09-01 04:47:00,
2013-08-31 21:52:00,70.7,54.3,29.81,NE,45,3.0,4.0,56,0.00,,,0.00,meteohub,2013-09-01 04:52:00,
2013-08-31 21:57:00,70.3,54.3,29.81,SW,225,1.0,4.0,57,0.00,,,0.00,meteohub,2013-09-01 04:57:00,
2013-08-31 22:02:00,70.2,54.1,29.81,NE,45,1.0,3.0,57,0.00,,,0.00,meteohub,2013-09-01 05:02:00,
2013-08-31 22:07:00,70.2,54.1,29.81,NE,45,1.0,3.0,57,0.00,,,0.00,meteohub,2013-09-01 05:07:00,
2013-08-31 22:12:00,69.6,54.1,29.81,SW,225,2.0,2.0,58,0.00,,,0.00,meteohub,2013-09-01 05:12:00,
2013-08-31 22:17:00,69.4,54.5,29.81,SW,225,0.0,2.0,59,0.00,,,0.00,meteohub,2013-09-01 05:17:00,
2013-08-31 22:22:00,69.1,54.1,29.81,SE,135,2.0,2.0,59,0.00,,,0.00,meteohub,2013-09-01 05:22:00,
2013-08-31 22:27:00,68.9,54.5,29.81,West,270,1.0,2.0,60,0.00,,,0.00,meteohub,2013-09-01 05:27:00,
2013-08-31 22:32:00,68.7,54.3,29.81,North,0,1.0,2.0,60,0.00,,,0.00,meteohub,2013-09-01 05:32:00,
2013-08-31 22:37:00,68.4,54.3,29.81,SW,225,2.0,2.0,61,0.00,,,0.00,meteohub,2013-09-01 05:37:00,
2013-08-31 22:42:00,68.2,54.1,29.81,SW,225,2.0,2.0,61,0.00,,,0.00,meteohub,2013-09-01 05:42:00,
2013-08-31 22:47:00,68.2,54.7,29.81,West,270,2.0,2.0,62,0.00,,,0.00,meteohub,2013-09-01 05:47:00,
2013-08-31 22:52:00,68.0,54.5,29.81,South,180,2.0,2.0,62,0.00,,,0.00,meteohub,2013-09-01 05:52:00,
2013-08-31 22:57:00,67.8,54.3,29.82,WNW,293,2.0,3.0,62,0.00,,,0.00,meteohub,2013-09-01 05:57:00,
2013-08-31 23:02:00,68.0,54.5,29.81,SW,225,2.0,3.0,62,0.00,,,0.00,meteohub,2013-09-01 06:02:00,
2013-08-31 23:07:00,67.6,54.1,29.82,North,0,1.0,3.0,62,0.00,,,0.00,meteohub,2013-09-01 06:07:00,
2013-08-31 23:12:00,67.6,54.7,29.81,SE,135,1.0,2.0,63,0.00,,,0.00,meteohub,2013-09-01 06:12:00,
2013-08-31 23:17:00,67.5,54.5,29.82,SW,225,2.0,2.0,63,0.00,,,0.00,meteohub,2013-09-01 06:17:00,
2013-08-31 23:23:00,67.3,54.3,29.82,NE,45,1.0,2.0,63,0.00,,,0.00,meteohub,2013-09-01 06:23:00,
2013-08-31 23:28:00,67.1,54.5,29.81,North,0,1.0,2.0,64,0.00,,,0.00,meteohub,2013-09-01 06:28:00,
2013-08-31 23:33:00,66.7,54.7,29.82,SW,225,3.0,3.0,65,0.00,,,0.00,meteohub,2013-09-01 06:33:00,
2013-08-31 23:38:00,66.6,54.5,29.82,West,270,2.0,3.0,65,0.00,,,0.00,meteohub,2013-09-01 06:38:00,
2013-08-31 23:43:00,66.4,54.3,29.82,West,270,2.0,3.0,65,0.00,,,0.00,meteohub,2013-09-01 06:43:00,
2013-08-31 23:48:00,66.2,54.5,29.82,NW,315,1.0,3.0,66,0.00,,,0.00,meteohub,2013-09-01 06:48:00,
2013-08-31 23:53:00,66.0,54.3,29.82,SW,225,1.0,3.0,66,0.00,,,0.00,meteohub,2013-09-01 06:53:00,
2013-08-31 23:58:00,65.8,54.1,29.81,South,180,1.0,2.0,66,0.00,,,0.00,meteohub,2013-09-01 06:58:00,